This demonstration page uses our WeatherBlox Daily Observations layout. Learn more.

Left ArrowRight Arrow

34.02893, -84.19858

Hourly Observations for October 4, 2015

Temp ( °F °C ) Dew Point ( °F °C ) Humidity (%) Winds ( mph kmh ) Pressure ( in mb ) Visibility ( mi km ) Precip ( " mm )
12:33 am 00:33 Cloudy with Light Rain 63 17.2 62 16.7 97 97 undefined N/A 29.71 1006 7 11 0.04 1.02
12:53 am 00:53 Cloudy 63 17.2 63 17.2 100 100 undefined N/A 29.70 1006 10 16 0.04 1.02
1:40 am 01:40 Cloudy with Light Rain 63 17 63 17 100 100 VRB 7 11 29.68 1005 10 16 0.00 0.00
1:53 am 01:53 Cloudy 63 17.2 62 16.7 97 97 NNE 9 15 29.67 1005 10 16 0.01 0.25
2:53 am 02:53 Cloudy with Light Rain 64 17.8 63 17.2 96 96 VRB 6 9 29.71 1006 10 16 0.00 0.03
3:01 am 03:01 Cloudy with Light Rain 64 17.8 63 17.2 96 96 VRB 3 6 29.71 1006 10 16 0.01 0.25
3:41 am 03:41 Mostly Cloudy 65 18.3 63 17.2 93 93 NE 10 17 29.68 1005 10 16 0.02 0.51
3:51 am 03:51 Mostly Cloudy 64 18 63 17 94 94 NE 10 17 29.68 1005 10 16 0.02 0.51
3:53 am 03:53 Mostly Cloudy 65 18.3 63 17.2 93 93 NE 10 17 29.68 1005 10 16 0.02 0.51
4:24 am 04:24 Mostly Cloudy 64 18 63 17 94 94 NE 8 13 29.68 1005 10 16 0.00 0.00
4:53 am 04:53 Cloudy 66 18.9 63 17.2 90 90 ENE 8 13 29.67 1005 10 16 0.00 0.00
5:53 am 05:53 Cloudy 66 18.9 62 16.7 87 87 NNE 8 13 29.65 1004 10 16 0.00 0.00
6:53 am 06:53 Cloudy with Light Rain 66 18.9 62 16.7 87 87 NNE 10 17 29.67 1005 10 16 0.00 0.03
7:53 am 07:53 Cloudy with Light Rain 66 18.9 63 17.2 90 90 VRB 7 11 29.70 1006 10 16 0.01 0.25
8:53 am 08:53 Cloudy with Mist and Fog 65 18.3 64 17.8 97 97 VRB 3 6 29.73 1007 5 8 0.00 0.03
9:38 am 09:38 Cloudy 66 19 63 17 88 88 NE 6 9 29.74 1007 10 16 0.00 0.00
9:53 am 09:53 Cloudy 66 18.9 62 16.7 87 87 VRB 3 6 29.75 1007 10 16 0.00 0.00
10:21 am 10:21 Cloudy 67 19.4 62 16.7 84 84 NNE 9 15 29.74 1007 10 16 0.00 0.00
10:36 am 10:36 Cloudy 66 19 63 17 88 88 NE 6 9 29.74 1007 10 16 0.00 0.00
10:53 am 10:53 Cloudy 67 19.4 62 16.7 84 84 VRB 7 11 29.75 1008 10 16 0.00 0.00
11:53 am 11:53 Cloudy 67 19.4 61 16.1 81 81 ENE 12 19 29.77 1008 10 16 0.00 0.00
12:53 pm 12:53 Cloudy 68 20 61 16.1 78 78 NE 12 19 29.77 1008 10 16 0.00 0.00
1:53 pm 13:53 Cloudy 70 21.1 62 16.7 76 76 NE 8 13 29.75 1008 10 16 0.00 0.00
2:53 pm 14:53 Cloudy 69 20.6 61 16.1 76 76 undefined N/A 29.77 1008 10 16 0.00 0.00
3:31 pm 15:31 Cloudy with Light Rain 65 18.3 63 17.2 93 93 VRB 5 7 29.77 1008 3 4 0.01 0.25
3:53 pm 15:53 Cloudy with Mist and Fog 65 18.3 63 17.2 93 93 NNE 3 6 29.79 1009 2 3 0.01 0.25
3:55 pm 15:55 Cloudy with Mist and Fog 66 18.9 64 17.8 93 93 NNE 6 9 29.77 1008 6 10 0.00 0.00
4:53 pm 16:53 Cloudy with Mist and Fog 66 18.9 64 17.8 93 93 NE 7 11 29.79 1009 6 10 0.00 0.00
5:00 pm 17:00 Cloudy 66 19 64 18 94 94 VRB 6 9 29.80 1009 9 14 0.00 0.00
5:38 pm 17:38 Cloudy with Mist and Fog 66 19 64 18 94 94 N 6 9 29.80 1009 3 4 0.00 0.00
5:53 pm 17:53 Cloudy with Light Rain 65 18.3 65 18.3 100 100 N 5 7 29.80 1009 3 4 0.00 0.03
6:05 pm 18:05 Cloudy with Mist and Fog 65 18.3 65 18.3 100 100 N 7 11 29.80 1009 4 6 0.00 0.03
6:38 pm 18:38 Cloudy with Light Rain 66 19 64 18 94 94 N 6 9 29.80 1009 2 3 0.00 0.00
6:53 pm 18:53 Cloudy with Light Rain 65 18.3 65 18.3 100 100 N 3 6 29.81 1010 2 3 0.02 0.51
7:10 pm 19:10 Cloudy with Mist and Fog 64 18 64 18 100 100 Calm 29.80 1009 2 3 0.00 0.00
7:53 pm 19:53 Cloudy with Mist and Fog 66 18.9 65 18.3 96 96 NE 8 13 29.82 1010 2 3 0.00 0.03
8:00 pm 20:00 Cloudy 66 19 64 18 94 94 NNE 8 13 29.83 1010 10 16 0.00 0.00
8:53 pm 20:53 Cloudy 65 18.3 64 17.8 97 97 Calm 29.84 1011 10 16 0.00 0.03
9:53 pm 21:53 Cloudy with Light Rain 65 18.3 64 17.8 97 97 Calm 29.86 1011 5 8 0.01 0.25
10:53 pm 22:53 Cloudy 65 18.3 63 17.2 93 93 NE 6 9 29.86 1011 10 16 0.01 0.25
11:53 pm 23:53 Cloudy 66 18.9 62 16.7 87 87 NE 6 9 29.87 1011 10 16 0.00 0.00

Powered by AerisWeather